KK7NDB Weather Reports


Display with metric or nautical units.
time (UTC)temp
F
wind
direction
speed
MPH
gust
MPH
rain 1hr
in
rain 24hr
in
rain mn
in
humidity
%
barometer
mb
20260906234814 76 333 2.0 2.0 0.00 0.00 0.00 37 1005.0
20260906234309 76 242 2.0 2.0 0.00 0.00 0.00 37 1005.4
20260906233808 76 6 0.0 4.0 0.00 0.00 0.00 38 1005.3
20260906233302 76 271 1.0 2.0 0.00 0.00 0.00 37 1005.4
20260906232757 76 240 2.0 4.0 0.00 0.00 0.00 37 1005.3
20260906232257 76 242 3.0 7.0 0.00 0.00 0.00 36 1005.2
20260906231757 76 235 0.0 5.0 0.00 0.00 0.00 36 1005.3
20260906231252 76 267 4.0 4.0 0.00 0.00 0.00 37 1005.2
20260906230752 76 248 1.0 2.0 0.00 0.00 0.00 36 1005.2
20260906230246 76 260 1.0 3.0 0.00 0.00 0.00 36 1005.2
20260906225745 76 290 2.0 7.0 0.00 0.00 0.00 36 1005.5
20260906225241 76 241 3.0 9.0 0.00 0.00 0.00 35 1005.5
20260906224736 76 250 2.0 7.0 0.00 0.00 0.00 35 1005.8
20260906224232 76 218 4.0 4.0 0.00 0.00 0.00 36 1006.0
20260906223729 76 329 1.0 6.0 0.00 0.00 0.00 35 1006.0
20260906223224 77 236 2.0 5.0 0.00 0.00 0.00 35 1005.8
20260906222722 77 272 0.0 5.0 0.00 0.00 0.00 36 1005.8
20260906222221 77 247 2.0 3.0 0.00 0.00 0.00 36 1005.9
20260906221719 77 222 2.0 3.0 0.00 0.00 0.00 37 1005.9
20260906221214 77 262 3.0 3.0 0.00 0.00 0.00 36 1005.8
20260906220710 77 244 5.0 8.0 0.00 0.00 0.00 35 1005.9
20260906220205 77 233 3.0 9.0 0.00 0.00 0.00 35 1006.1
20260906215704 77 250 2.0 5.0 0.00 0.00 0.00 35 1006.1
20260906215203 78 254 2.0 5.0 0.00 0.00 0.00 35 1006.0
20260906214701 78 225 4.0 5.0 0.00 0.00 0.00 35 1006.1
20260906214156 77 232 1.0 4.0 0.00 0.00 0.00 35 1006.0
20260906213655 77 249 4.0 5.0 0.00 0.00 0.00 35 1006.2
20260906213150 78 267 2.0 11.0 0.00 0.00 0.00 34 1006.1
20260906212648 79 235 2.0 6.0 0.00 0.00 0.00 33 1006.1
20260906212143 80 309 1.0 3.0 0.00 0.00 0.00 34 1006.3
20260906211643 79 262 1.0 8.0 0.00 0.00 0.00 34 1006.2
20260906211138 79 255 0.0 2.0 0.00 0.00 0.00 34 1006.5
20260906210634 79 260 1.0 3.0 0.00 0.00 0.00 32 1006.1
20260906210128 79 288 1.0 2.0 0.00 0.00 0.00 33 1006.6
20260906205624 79 260 2.0 9.0 0.00 0.00 0.00 32 1006.5
20260906205120 80 275 3.0 4.0 0.00 0.00 0.00 32 1006.3
20260906204619 79 239 0.0 4.0 0.00 0.00 0.00 34 1006.3
20260906204114 79 275 2.0 6.0 0.00 0.00 0.00 32 1006.5
20260906203613 79 271 3.0 7.0 0.00 0.00 0.00 31 1006.7
20260906203108 81 275 2.0 3.0 0.00 0.00 0.00 30 1006.6
20260906202606 81 286 2.0 5.0 0.00 0.00 0.00 31 1006.7
20260906202105 80 285 1.0 4.0 0.00 0.00 0.00 31 1006.8
20260906201600 81 84 2.0 5.0 0.00 0.00 0.00 29 1006.8
20260906201059 78 291 3.0 5.0 0.00 0.00 0.00 31 1006.8
20260906200555 78 48 3.0 5.0 0.00 0.00 0.00 31 1006.8
20260906200051 78 108 2.0 11.0 0.00 0.00 0.00 31 1006.8
20260906195546 78 126 1.0 13.0 0.00 0.00 0.00 34 1007.1
20260906195043 78 93 4.0 6.0 0.00 0.00 0.00 32 1006.9
20260906194539 79 99 3.0 6.0 0.00 0.00 0.00 31 1007.3
20260906194034 78 96 5.0 8.0 0.00 0.00 0.00 32 1007.2
20260906193534 78 84 3.0 5.0 0.00 0.00 0.00 34 1007.2
20260906193029 78 96 3.0 5.0 0.00 0.00 0.00 31 1007.3
20260906192525 79 292 0.0 10.0 0.00 0.00 0.00 32 1007.1
20260906192023 81 52 4.0 5.0 0.00 0.00 0.00 29 1007.3
20260906191519 80 77 3.0 4.0 0.00 0.00 0.00 31 1007.3
20260906191018 80 92 6.0 10.0 0.00 0.00 0.00 30 1007.3
20260906190517 81 202 0.0 4.0 0.00 0.00 0.00 29 1007.8
20260906190013 84 328 2.0 3.0 0.00 0.00 0.00 27 1007.3
20260906185511 83 242 2.0 3.0 0.00 0.00 0.00 28 1007.8
20260906185010 81 101 4.0 4.0 0.00 0.00 0.00 29 1007.5
20260906184505 82 118 1.0 3.0 0.00 0.00 0.00 31 1007.7
20260906184001 79 102 3.0 6.0 0.00 0.00 0.00 30 1007.7
20260906183456 79 318 2.0 2.0 0.00 0.00 0.00 29 1007.4
20260906182951 80 348 1.0 5.0 0.00 0.00 0.00 30 1007.7
20260906182448 80 255 1.0 5.0 0.00 0.00 0.00 27 1007.5
20260906181943 78 77 3.0 5.0 0.00 0.00 0.00 30 1007.9
20260906181438 79 155 2.0 7.0 0.00 0.00 0.00 29 1007.9
20260906180929 83 72 4.0 6.0 0.00 0.00 0.00 26 1008.1
20260906180424 84 249 5.0 5.0 0.00 0.00 0.00 26 1007.9
20260906175921 84 271 4.0 4.0 0.00 0.00 0.00 26 1008.0
20260906175416 84 71 2.0 4.0 0.00 0.00 0.00 31 1007.9
20260906174915 84 260 2.0 6.0 0.00 0.00 0.00 25 1008.1
20260906174414 83 259 2.0 4.0 0.00 0.00 0.00 28 1008.1
20260906173910 82 266 2.0 6.0 0.00 0.00 0.00 26 1008.1
20260906173404 81 96 3.0 4.0 0.00 0.00 0.00 29 1008.1
20260906172904 80 102 0.0 3.0 0.00 0.00 0.00 29 1008.6
20260906172400 80 96 3.0 5.0 0.00 0.00 0.00 28 1008.5
20260906171855 81 304 2.0 3.0 0.00 0.00 0.00 29 1008.5
20260906171350 82 293 1.0 4.0 0.00 0.00 0.00 29 1008.5
20260906170846 84 61 2.0 3.0 0.00 0.00 0.00 30 1008.4
20260906170342 83 265 2.0 4.0 0.00 0.00 0.00 27 1008.4
20260906165838 82 243 2.0 5.0 0.00 0.00 0.00 28 1008.4
20260906165336 82 249 0.0 4.0 0.00 0.00 0.00 28 1008.6
20260906164832 82 313 1.0 3.0 0.00 0.00 0.00 33 1008.6
20260906164331 80 297 2.0 6.0 0.00 0.00 0.00 27 1008.8
20260906163827 78 276 2.0 4.0 0.00 0.00 0.00 31 1008.8
20260906163324 75 99 4.0 6.0 0.00 0.00 0.00 34 1008.5
20260906162821 77 215 0.0 6.0 0.00 0.00 0.00 32 1009.1
20260906162320 76 92 2.0 5.0 0.00 0.00 0.00 33 1009.0
20260906161815 77 260 2.0 3.0 0.00 0.00 0.00 33 1009.1
20260906161315 75 14 1.0 6.0 0.00 0.00 0.00 38 1009.0
20260906160813 75 68 4.0 6.0 0.00 0.00 0.00 33 1009.0
20260906160308 79 31 1.0 2.0 0.00 0.00 0.00 32 1009.1
20260906155805 76 23 1.0 2.0 0.00 0.00 0.00 38 1009.1
20260906155300 75 246 2.0 6.0 0.00 0.00 0.00 36 1009.2
20260906154756 72 89 0.0 7.0 0.00 0.00 0.00 35 1009.1
20260906154251 73 78 5.0 5.0 0.00 0.00 0.00 43 1009.0
20260906153749 72 229 2.0 5.0 0.00 0.00 0.00 44 1009.2
20260906153244 71 217 0.0 2.0 0.00 0.00 0.00 40 1009.2
20260906152739 71 259 4.0 6.0 0.00 0.00 0.00 43 1009.0
20260906152233 71 67 2.0 4.0 0.00 0.00 0.00 39 1009.1
20260906151733 69 79 3.0 4.0 0.00 0.00 0.00 44 1009.3
20260906151228 67 44 3.0 4.0 0.00 0.00 0.00 49 1009.1
20260906150724 69 85 2.0 2.0 0.00 0.00 0.00 45 1009.2
20260906150219 67 73 2.0 3.0 0.00 0.00 0.00 46 1009.3
20260906145718 66 89 2.0 3.0 0.00 0.00 0.00 49 1009.3
20260906145217 67 69 1.0 4.0 0.00 0.00 0.00 43 1009.3
20260906144713 67 59 3.0 4.0 0.00 0.00 0.00 42 1009.1
20260906144207 68 314 0.0 2.0 0.00 0.00 0.00 40 1009.1
20260906143706 68 77 0.0 3.0 0.00 0.00 0.00 39 1009.2
20260906143204 67 124 0.0 1.0 0.00 0.00 0.00 41 1009.3
20260906142658 65 31 4.0 4.0 0.00 0.00 0.00 42 1009.0
20260906142153 65 326 0.0 2.0 0.00 0.00 0.00 42 1009.2
20260906141651 65 87 3.0 5.0 0.00 0.00 0.00 42 1009.0
20260906141141 65 250 2.0 2.0 0.00 0.00 0.00 40 1009.0
20260906140640 68 54 1.0 2.0 0.00 0.00 0.00 42 1009.2
20260906140136 68 44 0.0 2.0 0.00 0.00 0.00 37 1009.2
20260906135632 65 47 1.0 3.0 0.00 0.00 0.00 42 1009.0
20260906135128 63 296 0.0 2.0 0.00 0.00 0.00 42 1009.1
20260906134624 61 47 2.0 3.0 0.00 0.00 0.00 46 1009.0
20260906134119 60 77 2.0 2.0 0.00 0.00 0.00 47 1009.0
20260906133614 59 250 3.0 3.0 0.00 0.00 0.00 48 1009.0
20260906133109 57 75 1.0 3.0 0.00 0.00 0.00 47 1008.8
20260906132604 57 48 2.0 3.0 0.00 0.00 0.00 48 1008.8
20260906132100 56 76 0.0 4.0 0.00 0.00 0.00 50 1009.0
20260906131554 57 92 2.0 4.0 0.00 0.00 0.00 48 1008.8
20260906131050 55 118 1.0 2.0 0.00 0.00 0.00 50 1008.7
20260906130544 55 31 0.0 3.0 0.00 0.00 0.00 53 1008.4
20260906130039 56 60 2.0 2.0 0.00 0.00 0.00 49 1008.6
20260906125536 57 100 2.0 3.0 0.00 0.00 0.00 48 1008.7
20260906125031 57 79 1.0 3.0 0.00 0.00 0.00 47 1008.6
20260906124527 57 66 2.0 2.0 0.00 0.00 0.00 48 1008.6
20260906124021 57 54 0.0 2.0 0.00 0.00 0.00 47 1008.7
20260906123520 57 110 0.0 2.0 0.00 0.00 0.00 48 1008.6
20260906123015 57 58 2.0 2.0 0.00 0.00 0.00 47 1008.6
20260906122509 58 24 0.0 1.0 0.00 0.00 0.00 46 1008.5
20260906122006 58 53 0.0 2.0 0.00 0.00 0.00 44 1008.7
20260906121501 57 86 1.0 1.0 0.00 0.00 0.00 45 1008.4
20260906120958 57 240 0.0 1.0 0.00 0.00 0.00 46 1008.4
20260906120453 57 83 2.0 4.0 0.00 0.00 0.00 46 1008.7
20260906115949 55 264 0.0 2.0 0.00 0.00 0.00 51 1008.7
20260906115444 57 79 3.0 3.0 0.00 0.00 0.00 48 1008.6
20260906114944 55 111 0.0 4.0 0.00 0.00 0.00 53 1008.6
20260906114438 57 42 4.0 4.0 0.00 0.00 0.00 49 1008.7
20260906113935 58 33 2.0 4.0 0.00 0.00 0.00 44 1008.5
20260906113433 58 87 3.0 3.0 0.00 0.00 0.00 46 1008.5
20260906112929 60 264 2.0 3.0 0.00 0.00 0.00 41 1008.7
20260906112425 60 344 0.0 3.0 0.00 0.00 0.00 40 1008.6
20260906111920 60 35 3.0 4.0 0.00 0.00 0.00 41 1008.7
20260906111419 62 91 3.0 3.0 0.00 0.00 0.00 40 1008.5
20260906110915 61 48 2.0 3.0 0.00 0.00 0.00 40 1008.6
20260906110409 61 55 2.0 4.0 0.00 0.00 0.00 40 1008.7
20260906105909 62 93 0.0 2.0 0.00 0.00 0.00 39 1008.7
20260906105405 62 42 1.0 2.0 0.00 0.00 0.00 38 1008.6
20260906104901 63 294 1.0 2.0 0.00 0.00 0.00 37 1008.6
20260906104359 62 307 1.0 2.0 0.00 0.00 0.00 37 1008.5
20260906103857 62 33 2.0 3.0 0.00 0.00 0.00 38 1008.5
20260906103356 62 81 4.0 6.0 0.00 0.00 0.00 38 1008.5
20260906102852 60 42 2.0 3.0 0.00 0.00 0.00 44 1008.5
20260906102351 62 114 0.0 3.0 0.00 0.00 0.00 37 1008.5
20260906101846 65 117 2.0 5.0 0.00 0.00 0.00 35 1008.6
20260906101341 65 91 6.0 10.0 0.00 0.00 0.00 35 1008.7
20260906100837 64 82 8.0 8.0 0.00 0.00 0.00 35 1008.2
20260906100336 64 22 2.0 7.0 0.00 0.00 0.00 35 1008.4
20260906095831 63 111 7.0 9.0 0.00 0.00 0.00 36 1008.4
20260906095326 64 124 0.0 1.0 0.00 0.00 0.00 35 1008.5
20260906094825 65 39 1.0 2.0 0.00 0.00 0.00 34 1008.2
20260906094320 66 101 3.0 9.0 0.00 0.00 0.00 33 1008.1
20260906093811 66 114 5.0 6.0 0.00 0.00 0.00 33 1008.4
20260906093307 65 82 9.0 11.0 0.00 0.00 0.00 33 1008.2
20260906092801 66 73 6.0 10.0 0.00 0.00 0.00 33 1008.1
20260906092256 65 84 8.0 10.0 0.00 0.00 0.00 33 1008.0
20260906091752 64 71 4.0 7.0 0.00 0.00 0.00 34 1008.2
20260906091248 64 88 1.0 4.0 0.00 0.00 0.00 35 1008.4
20260906090744 64 95 4.0 11.0 0.00 0.00 0.00 35 1008.2
20260906090243 63 74 7.0 7.0 0.00 0.00 0.00 37 1008.1
20260906085742 64 81 2.0 4.0 0.00 0.00 0.00 37 1008.5
20260906085241 64 89 2.0 8.0 0.00 0.00 0.00 35 1008.2
20260906084736 65 97 4.0 5.0 0.00 0.00 0.00 33 1008.2
20260906084231 65 95 4.0 5.0 0.00 0.00 0.00 33 1008.1
20260906083726 65 104 5.0 6.0 0.00 0.00 0.00 34 1008.2
20260906083220 65 88 4.0 7.0 0.00 0.00 0.00 34 1008.1
20260906082716 66 80 4.0 5.0 0.00 0.00 0.00 32 1008.1
20260906082205 66 97 4.0 6.0 0.00 0.00 0.00 32 1008.1
20260906081701 66 84 3.0 7.0 0.00 0.00 0.00 32 1008.4
20260906081150 66 71 4.0 7.0 0.00 0.00 0.00 33 1008.1
20260906080647 66 101 5.0 5.0 0.00 0.00 0.00 32 1008.1
20260906080142 65 83 4.0 6.0 0.00 0.00 0.00 33 1008.5
20260906075636 64 76 6.0 8.0 0.00 0.00 0.00 35 1008.2
20260906075131 62 73 3.0 3.0 0.00 0.00 0.00 39 1008.5
20260906074626 64 129 0.0 2.0 0.00 0.00 0.00 35 1008.2
20260906074125 64 92 3.0 5.0 0.00 0.00 0.00 34 1008.4
20260906073620 65 43 0.0 3.0 0.00 0.00 0.00 34 1008.2
20260906073116 64 93 4.0 5.0 0.00 0.00 0.00 34 1008.1
20260906072611 63 70 3.0 5.0 0.00 0.00 0.00 36 1008.2
20260906072106 64 35 2.0 3.0 0.00 0.00 0.00 36 1008.2
20260906071603 65 93 2.0 6.0 0.00 0.00 0.00 34 1008.2
20260906071057 64 59 3.0 3.0 0.00 0.00 0.00 33 1008.2
20260906070554 66 94 3.0 3.0 0.00 0.00 0.00 33 1008.4
20260906070049 66 93 1.0 6.0 0.00 0.00 0.00 33 1008.2
20260906065549 64 49 0.0 2.0 0.00 0.00 0.00 33 1008.4
20260906065045 64 91 0.0 5.0 0.00 0.00 0.00 36 1008.1
20260906064540 63 86 2.0 3.0 0.00 0.00 0.00 34 1008.4
20260906064034 64 59 3.0 3.0 0.00 0.00 0.00 35 1008.1
20260906063530 63 230 0.0 3.0 0.00 0.00 0.00 35 1008.4
20260906063026 62 42 0.0 5.0 0.00 0.00 0.00 37 1008.1
20260906062515 63 60 3.0 3.0 0.00 0.00 0.00 39 1008.2
20260906062010 64 296 1.0 2.0 0.00 0.00 0.00 33 1008.2
20260906061505 63 50 1.0 4.0 0.00 0.00 0.00 40 1008.0
20260906060959 64 40 3.0 4.0 0.00 0.00 0.00 33 1007.9
20260906060457 66 89 0.0 3.0 0.00 0.00 0.00 31 1008.0
20260906055953 65 40 4.0 5.0 0.00 0.00 0.00 33 1008.1
20260906055449 65 101 2.0 2.0 0.00 0.00 0.00 33 1008.1
20260906054944 65 46 1.0 2.0 0.00 0.00 0.00 34 1008.1
20260906054444 64 39 2.0 3.0 0.00 0.00 0.00 34 1007.9
20260906053939 65 40 0.0 1.0 0.00 0.00 0.00 33 1007.8
20260906053436 65 264 0.0 2.0 0.00 0.00 0.00 33 1008.1
20260906052931 67 345 0.0 2.0 0.00 0.00 0.00 31 1008.1
20260906052427 67 69 1.0 4.0 0.00 0.00 0.00 31 1008.0
20260906051923 67 35 0.0 2.0 0.00 0.00 0.00 31 1008.0
20260906051418 67 82 6.0 6.0 0.00 0.00 0.00 31 1008.1
20260906050914 66 50 0.0 2.0 0.00 0.00 0.00 32 1008.2
20260906050414 66 45 2.0 3.0 0.00 0.00 0.00 31 1008.2
20260906045913 66 49 2.0 2.0 0.00 0.00 0.00 32 1008.1
20260906045412 67 74 1.0 2.0 0.00 0.00 0.00 31 1008.1
20260906044908 66 202 0.0 2.0 0.00 0.00 0.00 31 1008.2
20260906044403 67 105 0.0 2.0 0.00 0.00 0.00 31 1008.4
20260906043859 68 23 1.0 3.0 0.00 0.00 0.00 29 1008.1
20260906043354 68 97 3.0 5.0 0.00 0.00 0.00 30 1007.9
20260906042849 69 71 1.0 2.0 0.00 0.00 0.00 29 1008.2
20260906042348 69 101 2.0 4.0 0.00 0.00 0.00 28 1008.1
20260906041843 69 82 2.0 5.0 0.00 0.00 0.00 29 1007.9
20260906041339 69 87 2.0 4.0 0.00 0.00 0.00 31 1007.8
20260906040834 71 124 0.0 4.0 0.00 0.00 0.00 27 1007.8
20260906040329 70 269 0.0 2.0 0.00 0.00 0.00 28 1007.8
20260906035825 71 85 4.0 7.0 0.00 0.00 0.00 27 1007.8
20260906035325 70 81 5.0 8.0 0.00 0.00 0.00 28 1007.8
20260906034820 70 90 6.0 6.0 0.00 0.00 0.00 28 1007.7
20260906034316 71 100 2.0 7.0 0.00 0.00 0.00 27 1007.7
20260906033811 70 89 5.0 7.0 0.00 0.00 0.00 27 1007.8
20260906033310 70 81 2.0 3.0 0.00 0.00 0.00 28 1007.5
20260906032807 71 72 2.0 6.0 0.00 0.00 0.00 27 1007.5
20260906032305 71 92 3.0 4.0 0.00 0.00 0.00 26 1007.3
20260906031757 71 98 4.0 4.0 0.00 0.00 0.00 26 1007.3
20260906031253 71 95 3.0 4.0 0.00 0.00 0.00 27 1007.2
20260906030753 72 85 4.0 5.0 0.00 0.00 0.00 26 1007.3
20260906030248 71 76 0.0 4.0 0.00 0.00 0.00 27 1007.3
20260906025747 71 93 2.0 3.0 0.00 0.00 0.00 27 1006.8
20260906025242 71 87 5.0 5.0 0.00 0.00 0.00 30 1007.1
20260906024740 71 75 2.0 3.0 0.00 0.00 0.00 29 1006.8
20260906024239 71 101 0.0 2.0 0.00 0.00 0.00 28 1006.8
20260906023735 72 87 1.0 3.0 0.00 0.00 0.00 28 1006.7
20260906023230 72 100 3.0 4.0 0.00 0.00 0.00 27 1006.5
20260906022726 72 114 2.0 4.0 0.00 0.00 0.00 27 1006.7
20260906022221 72 94 4.0 4.0 0.00 0.00 0.00 27 1006.3
20260906021718 72 42 3.0 3.0 0.00 0.00 0.00 27 1006.2
20260906021216 72 74 1.0 2.0 0.00 0.00 0.00 28 1006.2
20260906020711 73 279 0.0 0.0 0.00 0.00 0.00 26 1006.2
20260906020206 73 29 0.0 2.0 0.00 0.00 0.00 25 1006.1
20260906015706 73 346 0.0 2.0 0.00 0.00 0.00 26 1006.2
20260906015158 74 283 0.0 0.0 0.00 0.00 0.00 25 1006.2
20260906014653 74 297 0.0 2.0 0.00 0.00 0.00 24 1006.2
20260906014149 75 309 0.0 0.0 0.00 0.00 0.00 24 1006.1
20260906013645 76 340 0.0 1.0 0.00 0.00 0.00 23 1006.3
20260906013140 76 269 0.0 2.0 0.00 0.00 0.00 23 1006.0
20260906012639 77 315 0.0 3.0 0.00 0.00 0.00 23 1006.3
20260906012129 78 285 2.0 3.0 0.00 0.00 0.00 23 1006.2
20260906011624 78 257 0.0 2.0 0.00 0.00 0.00 22 1006.5
20260906011119 78 0 0.0 2.0 0.00 0.00 0.00 23 1006.3
20260906010614 78 261 0.0 3.0 0.00 0.00 0.00 22 1006.5
20260906010110 79 269 0.0 3.0 0.00 0.00 0.00 22 1006.3
20260906005609 79 275 2.0 3.0 0.00 0.00 0.00 22 1006.3
20260906005108 79 280 2.0 2.0 0.00 0.00 0.00 22 1006.3
20260906004603 79 266 0.0 3.0 0.00 0.00 0.00 22 1006.5
20260906004058 80 237 3.0 4.0 0.00 0.00 0.00 23 1006.3
20260906003553 80 253 3.0 5.0 0.00 0.00 0.00 21 1006.3
20260906003048 80 252 2.0 3.0 0.00 0.00 0.00 21 1006.3
20260906002543 81 232 4.0 5.0 0.00 0.00 0.00 21 1006.2
20260906002037 82 249 1.0 4.0 0.00 0.00 0.00 21 1006.1
20260906001533 84 264 2.0 6.0 0.00 0.00 0.00 19 1006.3
20260906001027 86 235 4.0 4.0 0.00 0.00 0.00 18 1006.2
20260906000523 86 256 4.0 5.0 0.00 0.00 0.00 19 1006.3
20260906000018 85 266 4.0 13.0 0.00 0.00 0.00 19 1006.1
20260905235511 85 267 3.0 5.0 0.00 0.00 0.00 19 1006.2
20260905235007 86 261 3.0 6.0 0.00 0.00 0.00 19 1006.2